STARLINK-1959 (47560 NORAD) Tracking and Keplerian Element Data

This shows tracking and keplerian element data for the satellite.

Feedback or suggestion? Click here.




ElementValue
Catalog47560
NameSTARLINK-1959
Epoch Orbit1175
Epoch Day106.25002315
Epoch Year2021
RAAN136.3141
Inclination53.0532
Eccentricity0.0003312
Argument of Perigee15.7965
Mean Anonmoly161.4878
Mean Motion15.62773132
Decay Rate-3.034E-05
L11 47560U 21009N 21106.25002315 -.00003034 00000-0 -27248-4 0 9991
L22 47560 53.0532 136.3141 0003312 15.7965 161.4878 15.62773132 11759

Live tracking and technical data element details for STARLINK-1959 (NORAD 47560). STARLINK-1959 can be tracked NOW for your location showing map with azimuth and elevation plus other details from your city location.

Track the satellite on the map from your city or location and see movement details for azimuth, elevation, latitude, longitude, range, height, and movement on the map or in text.







IsCatalogInMostPopularTable: catalog: 47560, numindb: 15
Update: records affected: 1



GetName: 47560 STARLINK-1959

Hit Count: updated at: Fri, 16 Apr 2021 11:16:03 GMT